Regional Weather Roundup
Issued by NWS

Home | Current Version | Previous Version | Graphics & Text | Print | Product List | Glossary On
Versions: 1 2 3 4 5 6 7 8 9 10 11 12 13 14 15 16 17 18 19 20 21 22 23 24 25 26 27 28 29 30 31 32 33 34 35 36 37 38 39 40 41 42 43 44 45 46 47 48 49 50
000
ASUS43 KBIS 261002
RWRND

NORTH DAKOTA REGIONAL WEATHER ROUNDUP
NATIONAL WEATHER SERVICE BISMARCK ND
500 AM CDT THU APR 26 2018

NOTE: "FAIR" INDICATES FEW OR NO CLOUDS BELOW 12,000 FEET WITH NO
SIGNIFICANT WEATHER AND/OR OBSTRUCTIONS TO VISIBILITY.


NDZ001>003-009>011-017-261100-
NORTHWEST NORTH DAKOTA

CITY           SKY/WX    TMP DP  RH WIND       PRES   REMARKS
WILLISTON      CLEAR     33  28  81 CALM      30.13R
MINOT          CLEAR     38  30  73 W10       30.06R
MINOT AFB      CLEAR     33  28  82 NW10      30.05R
$$

NDZ018>021-031>035-040>046-261100-
SOUTHWEST NORTH DAKOTA

CITY           SKY/WX    TMP DP  RH WIND       PRES   REMARKS
BISMARCK       CLEAR     43  30  60 NW12      30.05R
DICKINSON      CLEAR     35  30  82 NW7       30.09R
GARRISON         N/A     33  30  88 NW10      30.07R
HETTINGER ARPT CLEAR     36  30  79 N8        30.12R
$$

NDZ004>008-012>016-024-026-027-054-261100-
NORTHEAST NORTH DAKOTA

CITY           SKY/WX    TMP DP  RH WIND       PRES   REMARKS
GRAND FORKS    FAIR      38  33  82 N14       29.92R
GRND FRKS AFB  FAIR      40  31  70 N13       29.93R
DEVILS LAKE    FAIR      35  27  72 NW12      30.00
$$

NDZ022-023-025-028>030-036>039-047>053-261100-
SOUTHEAST NORTH DAKOTA

CITY           SKY/WX    TMP DP  RH WIND       PRES   REMARKS
FARGO          FAIR      44  33  65 N20       29.86R
JAMESTOWN      CLEAR     39  31  72 NW13      29.96R
$$




USA.gov is the U.S. government's official web portal to all federal, state and local government web resources and services.